Selinsgrove, PA

10:33 AM EDT on August 23, 2017 (GMT -0400)
Penn Valley

Weather History for KSEG - November, 2012

Change the Weather History Date:

Sunday, November 11, 2012

  Actual Average (KIPT) Record (KIPT)
Temperature  
Mean Temperature 48 °F -  
Max Temperature 64 °F 48 °F 71 °F (1949)
Min Temperature 33 °F 31 °F 18 °F (1952)
Degree Days  
Heating Degree Days 16    
Moisture  
Dew Point 38 °F    
Average Humidity 86    
Maximum Humidity 100    
Minimum Humidity 42    
Precipitation  
Precipitation 0.00 in - - ()
Sea Level Pressure  
Sea Level Pressure 30.40 in    
Wind  
Wind Speed 1 mph (WSW)    
Max Wind Speed 7 mph    
Max Gust Speed -    
Visibility 4 miles    
Events Fog    
Averages and records for this station are not official NWS values.
T = Trace of Precipitation, MM = Missing Value Source: NWS Daily Summary

Daily Weather History Graph

Daily Weather History Graph

Search for Another Location

Airport or City:

Trip Planner

Search our weather history database for the weather conditions in past years. The results will help you decide how hot, cold, wet, or windy it might be!

Date:

Astronomy

Nov. 11, 2012 Rise Set
Actual Time 6:50 AM EST 4:52 PM EST
Civil Twilight 6:21 AM EST 5:21 PM EST
Nautical Twilight 5:48 AM EST 5:54 PM EST
Astronomical Twilight 5:15 AM EST 6:26 PM EST
Moon 4:00 AM EST (11/11) 3:15 PM EST (11/11)
Length of Visible Light 11h 00m
Length of Day
10h 01m
Waning Crescent, 7% of the Moon is Illuminated
Nov 11
Waning Crescent
Nov 13
New
Nov 20
First Quarter
Nov 28
Full
Dec 6
Last Quarter

Hourly Weather History & Observations

Time (EST) Temp. Windchill Dew Point Humidity Pressure Visibility Wind Dir Wind Speed Gust Speed Precip Events Conditions
12:36 AM 35.6 °F - 35.6 °F 100% 30.36 in 1.8 mi Calm Calm - N/A   Clear
12:53 AM 34.0 °F - 34.0 °F 100% 30.38 in 2.0 mi Calm Calm - N/A   Clear
1:39 AM 35.6 °F - 33.8 °F 93% 30.36 in 1.8 mi Calm Calm - N/A   Mostly Cloudy
1:48 AM 35.6 °F - 35.6 °F 100% 30.36 in 2.0 mi Calm Calm - N/A   Mostly Cloudy
1:53 AM 36.0 °F - 35.1 °F 97% 30.37 in 2.0 mi Calm Calm - N/A   Overcast
2:53 AM 37.0 °F 34.5 °F 37.0 °F 100% 30.38 in 2.5 mi NW 3.5 mph - N/A   Overcast
3:53 AM 37.9 °F - 37.0 °F 97% 30.39 in 3.0 mi Calm Calm - N/A   Overcast
4:18 AM 37.4 °F - 37.4 °F 100% 30.38 in 2.5 mi Calm Calm - N/A   Mostly Cloudy
4:37 AM 37.4 °F - 35.6 °F 93% 30.39 in 1.2 mi Calm Calm - N/A   Partly Cloudy
4:50 AM 37.4 °F - 35.6 °F 93% 30.39 in 2.5 mi Calm Calm - N/A   Clear
4:53 AM 37.0 °F - 36.0 °F 96% 30.40 in 2.0 mi Calm Calm - N/A   Clear
5:01 AM 37.4 °F - 35.6 °F 93% 30.39 in 1.5 mi Calm Calm - N/A   Clear
5:28 AM 35.6 °F - 35.6 °F 100% 30.40 in 0.8 mi Calm Calm - N/A   Clear
5:30 AM 35.6 °F - 35.6 °F 100% 30.40 in 0.5 mi Calm Calm - N/A Fog Fog
5:37 AM 35.6 °F - 33.8 °F 93% 30.40 in 0.5 mi Calm Calm - N/A Fog Fog
5:53 AM 35.1 °F - 35.1 °F 100% 30.41 in 0.8 mi Calm Calm - N/A   Mist
5:58 AM 35.6 °F - 33.8 °F 93% 30.40 in 1.0 mi Calm Calm - N/A   Mist
6:04 AM 33.8 °F - 33.8 °F 100% 30.40 in 1.2 mi Calm Calm - N/A   Clear
6:53 AM 34.0 °F - 33.1 °F 96% 30.44 in 1.0 mi Calm Calm - N/A   Clear
7:03 AM 33.8 °F - 33.8 °F 100% 30.43 in 0.8 mi Calm Calm - N/A   Clear
7:29 AM 35.6 °F - 33.8 °F 93% 30.44 in 1.0 mi Calm Calm - N/A   Clear
7:53 AM 35.1 °F - 34.0 °F 96% 30.46 in 1.2 mi Calm Calm - N/A   Clear
8:29 AM 39.2 °F - 37.4 °F 93% 30.45 in 2.0 mi Calm Calm - N/A   Clear
9:53 AM 50.0 °F - 42.1 °F 74% 30.47 in 5.0 mi Calm Calm - N/A   Haze
10:53 AM 55.0 °F - 42.1 °F 62% 30.44 in 6.0 mi Calm Calm - N/A   Haze
11:53 AM 59.0 °F - 42.1 °F 53% 30.42 in 8.0 mi Variable 4.6 mph - N/A   Clear
12:53 PM 62.1 °F - 42.1 °F 48% 30.39 in 9.0 mi South 6.9 mph - N/A   Clear
1:53 PM 64.0 °F - 41.0 °F 43% 30.37 in 9.0 mi SW 4.6 mph - N/A   Clear
2:53 PM 64.9 °F - 41.0 °F 42% 30.36 in 10.0 mi SSW 4.6 mph - N/A   Clear
3:53 PM 63.0 °F - 42.1 °F 46% 30.37 in 10.0 mi SW 4.6 mph - N/A   Clear
4:53 PM 60.1 °F - 43.0 °F 53% 30.38 in 10.0 mi South 4.6 mph - N/A   Clear
5:53 PM 52.0 °F - 42.1 °F 69% 30.39 in 9.0 mi Calm Calm - N/A   Clear
6:53 PM 46.9 °F - 42.1 °F 83% 30.41 in 8.0 mi NW 3.5 mph - N/A   Clear
7:53 PM 45.0 °F - 42.1 °F 90% 30.41 in 8.0 mi Calm Calm - N/A   Clear
8:53 PM 43.0 °F 41.3 °F 39.9 °F 89% 30.41 in 7.0 mi NNW 3.5 mph - N/A   Clear
9:53 PM 41.0 °F - 39.9 °F 96% 30.40 in 7.0 mi Calm Calm - N/A   Clear
10:53 PM 42.1 °F - 39.0 °F 89% 30.40 in 6.0 mi Calm Calm - N/A   Clear
11:53 PM 39.9 °F - 37.9 °F 93% 30.40 in 5.0 mi Calm Calm - N/A   Clear